Location: Kaltenbach
(49.2000°N, 7.7500°E)
Time: 18:44:23
(UTC+00:00)

STARLINK-1078 - Pass Details

Date: 24 January 2020
Orbit: 349 x 351 km, 53.0° (Epoch: 16 February)

Event Time Altitude Azimuth Distance (km) Brightness Sun altitude
Rises 17:13:42 0° 273° (W) 2,160 8.2 -10.1°
Reaches altitude 10° 17:15:47 10° 281° (WNW) 1,318 6.6 -10.4°
Maximum altitude 17:18:34 39° 353° (N) 548 3.5 -10.9°
Enters shadow 17:20:22 18° 55° (NE) 947 4.2 -11.2°
